Location: Izdebno
(52.6670°N, 16.2170°E)
Time: 23:10:28
(UTC+02:00)

Vanguard 2 Rocket - Pass Details

Date: 25 February 2024
Orbit: 555 x 3307 km, 32.9° (Epoch: 21 April)

Event Time Altitude Azimuth Distance (km) Brightness Sun altitude
Rises 19:00:44 0° 263° (W) 5,750 12.7 -15.2°
Reaches altitude 10° 19:04:58 10° 252° (WSW) 5,125 11.8 -15.8°
Maximum altitude 19:16:58 27° 203° (SSW) 4,635 10.6 -17.6°
Drops below altitude 10° 19:31:35 10° 156° (SSE) 6,259 10.8 -19.8°
Sets 19:37:38 0° 146° (SE) 7,220 11.1 -20.7°
